Time,TemperatureF,DewpointF,PressureIn,WindDirection,WindDirectionDegrees,WindSpeedMPH,WindSpeedGustMPH,Humidity,HourlyPrecipIn,Conditions,Clouds,dailyrainin,SoftwareType,DateUTC
2013-09-13 00:00:00,61.3,34.1,29.41,NNW,331,0.0,0.0,36,0.00,CLR,OVC,0.00,WeatherDisplay:10.37,2013-09-12 14:00:00,
2013-09-13 00:15:00,60.6,34.9,29.41,North,11,0.0,0.0,38,0.00,CLR,OVC,0.00,WeatherDisplay:10.37,2013-09-12 14:15:00,
2013-09-13 00:30:00,59.7,34.7,29.44,SE,146,0.0,0.0,39,0.00,CLR,OVC,0.00,WeatherDisplay:10.37,2013-09-12 14:30:00,
2013-09-13 00:45:00,59.0,34.7,29.44,SSE,153,3.0,5.0,40,0.00,CLR,OVC,0.00,WeatherDisplay:10.37,2013-09-12 14:45:00,
2013-09-13 01:00:00,59.4,36.2,29.44,West,260,1.0,4.0,42,0.00,CLR,OVC,0.00,WeatherDisplay:10.37,2013-09-12 15:00:00,
2013-09-13 01:15:00,59.4,38.6,29.47,WNW,283,2.0,5.0,46,0.00,CLR,OVC,0.00,WeatherDisplay:10.37,2013-09-12 15:15:00,
2013-09-13 01:30:00,59.4,39.7,29.47,NNW,332,0.0,4.0,48,0.00,CLR,OVC,0.00,WeatherDisplay:10.37,2013-09-12 15:30:00,
2013-09-13 01:45:00,58.8,39.7,29.50,WNW,299,2.0,9.0,49,0.00,CLR,OVC,0.00,WeatherDisplay:10.37,2013-09-12 15:45:00,
2013-09-13 02:00:00,58.3,40.2,29.47,SW,221,1.0,7.0,51,0.00,CLR,OVC,0.00,WeatherDisplay:10.37,2013-09-12 16:00:00,
2013-09-13 02:15:00,58.5,39.9,29.50,NE,51,2.0,3.0,50,0.00,CLR,OVC,0.00,WeatherDisplay:10.37,2013-09-12 16:15:00,
2013-09-13 02:30:00,58.1,39.5,29.53,North,5,2.0,4.0,50,0.00,CLR,OVC,0.00,WeatherDisplay:10.37,2013-09-12 16:30:00,
2013-09-13 02:45:00,57.7,39.2,29.53,NNW,334,3.0,4.0,50,0.00,CLR,OVC,0.00,WeatherDisplay:10.37,2013-09-12 16:45:00,
2013-09-13 03:00:00,57.6,39.0,29.56,North,359,1.0,2.0,50,0.00,CLR,OVC,0.00,WeatherDisplay:10.37,2013-09-12 17:00:00,
2013-09-13 03:15:00,56.8,38.4,29.59,North,9,2.0,4.0,50,0.00,CLR,OVC,0.00,WeatherDisplay:10.37,2013-09-12 17:15:00,
2013-09-13 03:30:00,56.5,38.1,29.56,East,80,1.0,5.0,50,0.00,CLR,OVC,0.00,WeatherDisplay:10.37,2013-09-12 17:30:00,
2013-09-13 03:45:00,56.1,37.7,29.56,SW,223,0.0,4.0,50,0.00,CLR,OVC,0.00,WeatherDisplay:10.37,2013-09-12 17:45:00,
2013-09-13 04:00:00,55.2,37.4,29.56,NNE,27,0.0,4.0,51,0.00,CLR,OVC,0.00,WeatherDisplay:10.37,2013-09-12 18:00:00,
2013-09-13 04:15:00,55.0,36.7,29.56,NNW,348,1.0,4.0,50,0.00,CLR,OVC,0.00,WeatherDisplay:10.37,2013-09-12 18:15:00,
2013-09-13 04:30:00,55.2,37.4,29.56,WNW,283,0.0,3.0,51,0.00,CLR,OVC,0.00,WeatherDisplay:10.37,2013-09-12 18:30:00,
2013-09-13 04:45:00,55.2,37.4,29.56,NW,326,0.0,3.0,51,0.00,CLR,OVC,0.00,WeatherDisplay:10.37,2013-09-12 18:45:00,
2013-09-13 05:00:00,55.2,37.4,29.56,WNW,296,0.0,2.0,51,0.00,CLR,OVC,0.00,WeatherDisplay:10.37,2013-09-12 19:00:00,
2013-09-13 05:15:00,55.2,36.9,29.56,WNW,296,0.0,2.0,50,0.00,CLR,OVC,0.00,WeatherDisplay:10.37,2013-09-12 19:15:00,
2013-09-13 05:30:00,55.0,36.7,29.56,NNW,327,1.0,4.0,50,0.00,CLR,OVC,0.00,WeatherDisplay:10.37,2013-09-12 19:30:00,
2013-09-13 05:45:00,55.0,37.2,29.56,NW,307,1.0,3.0,51,0.00,CLR,OVC,0.00,WeatherDisplay:10.37,2013-09-12 19:45:00,
2013-09-13 06:00:00,55.0,37.2,29.56,NW,308,0.0,2.0,51,0.00,CLR,OVC,0.00,WeatherDisplay:10.37,2013-09-12 20:00:00,
2013-09-13 06:15:00,55.0,37.2,29.56,NW,314,0.0,3.0,51,0.00,CLR,OVC,0.00,WeatherDisplay:10.37,2013-09-12 20:15:00,
2013-09-13 06:30:00,54.9,37.1,29.56,WNW,303,0.0,3.0,51,0.00,CLR,OVC,0.00,WeatherDisplay:10.37,2013-09-12 20:30:00,
2013-09-13 06:45:00,54.7,36.9,29.56,NW,323,1.0,3.0,51,0.00,CLR,OVC,0.00,WeatherDisplay:10.37,2013-09-12 20:45:00,
2013-09-13 07:00:00,54.5,36.7,29.56,NNW,338,0.0,3.0,51,0.00,CLR,OVC,0.00,WeatherDisplay:10.37,2013-09-12 21:00:00,
2013-09-13 07:15:00,54.5,36.7,29.56,North,358,1.0,3.0,51,0.00,CLR,OVC,0.00,WeatherDisplay:10.37,2013-09-12 21:15:00,
2013-09-13 07:30:00,54.1,36.9,29.59,North,351,0.0,3.0,52,0.00,CLR,OVC,0.00,WeatherDisplay:10.37,2013-09-12 21:30:00,
2013-09-13 07:45:00,54.1,36.9,29.59,NNW,327,0.0,0.0,52,0.00,CLR,OVC,0.00,WeatherDisplay:10.37,2013-09-12 21:45:00,
2013-09-13 08:00:00,54.3,37.1,29.59,WNW,284,0.0,0.0,52,0.00,CLR,OVC,0.00,WeatherDisplay:10.37,2013-09-12 22:00:00,
2013-09-13 08:15:00,54.1,36.9,29.59,NNW,334,0.0,2.0,52,0.00,CLR,OVC,0.00,WeatherDisplay:10.37,2013-09-12 22:15:00,
2013-09-13 08:30:00,54.0,36.7,29.59,East,79,0.0,0.0,52,0.00,CLR,OVC,0.00,WeatherDisplay:10.37,2013-09-12 22:30:00,
2013-09-13 08:45:00,54.0,36.7,29.59,SW,235,0.0,2.0,52,0.00,CLR,OVC,0.00,WeatherDisplay:10.37,2013-09-12 22:45:00,
2013-09-13 09:00:00,53.8,37.0,29.59,NW,319,1.0,3.0,53,0.00,CLR,OVC,0.00,WeatherDisplay:10.37,2013-09-12 23:00:00,
2013-09-13 09:15:00,54.0,37.2,29.62,NW,310,1.0,2.0,53,0.00,CLR,OVC,0.00,WeatherDisplay:10.37,2013-09-12 23:15:00,
2013-09-13 09:30:00,54.0,37.2,29.62,NW,315,0.0,2.0,53,0.00,CLR,OVC,0.00,WeatherDisplay:10.37,2013-09-12 23:30:00,
2013-09-13 09:45:00,54.1,37.4,29.62,NW,315,0.0,3.0,53,0.00,CLR,OVC,0.00,WeatherDisplay:10.37,2013-09-12 23:45:00,
2013-09-13 10:00:00,54.1,37.4,29.62,NW,308,0.0,2.0,53,0.00,CLR,OVC,0.00,WeatherDisplay:10.37,2013-09-13 00:00:00,
2013-09-13 10:15:00,54.1,37.4,29.62,North,7,0.0,1.0,53,0.00,CLR,OVC,0.00,WeatherDisplay:10.37,2013-09-13 00:15:00,
2013-09-13 10:30:00,54.5,37.7,29.62,WNW,303,0.0,0.0,53,0.00,CLR,OVC,0.00,WeatherDisplay:10.37,2013-09-13 00:30:00,
2013-09-13 10:45:00,54.9,38.0,29.65,NW,326,1.0,3.0,53,0.00,CLR,OVC,0.00,WeatherDisplay:10.37,2013-09-13 00:45:00,
2013-09-13 11:00:00,55.6,38.2,29.65,NNE,15,1.0,3.0,52,0.00,CLR,OVC,0.00,WeatherDisplay:10.37,2013-09-13 01:00:00,
2013-09-13 11:15:00,55.8,38.4,29.65,WNW,292,3.0,6.0,52,0.00,CLR,OVC,0.00,WeatherDisplay:10.37,2013-09-13 01:15:00,
2013-09-13 11:30:00,58.3,40.7,29.68,NNW,348,1.0,3.0,52,0.00,CLR,OVC,0.00,WeatherDisplay:10.37,2013-09-13 01:30:00,
2013-09-13 11:45:00,61.7,41.8,29.68,North,11,2.0,4.0,48,0.00,CLR,OVC,0.00,WeatherDisplay:10.37,2013-09-13 01:45:00,
2013-09-13 12:00:00,64.2,43.6,29.68,NNE,16,3.0,6.0,47,0.00,CLR,OVC,0.00,WeatherDisplay:10.37,2013-09-13 02:00:00,
2013-09-13 12:15:00,65.7,43.1,29.65,North,0,2.0,5.0,44,0.00,CLR,OVC,0.00,WeatherDisplay:10.37,2013-09-13 02:15:00,
2013-09-13 12:30:00,66.6,43.4,29.65,NE,34,1.0,5.0,43,0.00,CLR,OVC,0.00,WeatherDisplay:10.37,2013-09-13 02:30:00,
2013-09-13 12:45:00,68.5,43.9,29.65,West,270,2.0,6.0,41,0.00,CLR,OVC,0.00,WeatherDisplay:10.37,2013-09-13 02:45:00,
2013-09-13 13:00:00,67.3,41.5,29.62,NW,312,1.0,5.0,39,0.00,CLR,OVC,0.00,WeatherDisplay:10.37,2013-09-13 03:00:00,
2013-09-13 13:15:00,65.3,41.0,29.62,NW,325,1.0,3.0,41,0.00,CLR,OVC,0.00,WeatherDisplay:10.37,2013-09-13 03:15:00,
2013-09-13 13:30:00,66.2,42.4,29.62,North,352,2.0,2.0,42,0.00,CLR,OVC,0.00,WeatherDisplay:10.37,2013-09-13 03:30:00,
2013-09-13 13:45:00,67.5,42.9,29.62,NNW,333,1.0,4.0,41,0.00,CLR,OVC,0.00,WeatherDisplay:10.37,2013-09-13 03:45:00,
2013-09-13 14:00:00,66.2,41.8,29.62,North,5,2.0,4.0,41,0.00,CLR,OVC,0.00,WeatherDisplay:10.37,2013-09-13 04:00:00,
2013-09-13 14:15:00,68.7,43.4,29.59,NNE,14,3.0,5.0,40,0.00,CLR,OVC,0.00,WeatherDisplay:10.37,2013-09-13 04:15:00,
2013-09-13 14:30:00,66.2,41.8,29.59,NNE,31,3.0,3.0,41,0.00,CLR,OVC,0.00,WeatherDisplay:10.37,2013-09-13 04:30:00,
2013-09-13 14:45:00,64.9,41.9,29.56,ENE,74,2.0,4.0,43,0.00,CLR,OVC,0.00,WeatherDisplay:10.37,2013-09-13 04:45:00,
2013-09-13 15:00:00,64.6,41.6,29.56,ESE,114,2.0,6.0,43,0.00,CLR,OVC,0.00,WeatherDisplay:10.37,2013-09-13 05:00:00,
2013-09-13 15:15:00,64.8,42.3,29.53,ENE,58,1.0,4.0,44,0.00,CLR,OVC,0.00,WeatherDisplay:10.37,2013-09-13 05:15:00,
2013-09-13 15:30:00,64.8,42.3,29.56,NE,41,3.0,6.0,44,0.00,CLR,OVC,0.00,WeatherDisplay:10.37,2013-09-13 05:30:00,
2013-09-13 15:45:00,66.0,43.5,29.53,NE,56,3.0,6.0,44,0.00,CLR,OVC,0.00,WeatherDisplay:10.37,2013-09-13 05:45:00,
2013-09-13 16:00:00,66.0,42.9,29.53,NE,54,2.0,5.0,43,0.00,CLR,OVC,0.00,WeatherDisplay:10.37,2013-09-13 06:00:00,
2013-09-13 16:15:00,66.6,43.4,29.50,ENE,58,3.0,4.0,43,0.00,CLR,OVC,0.00,WeatherDisplay:10.37,2013-09-13 06:15:00,
2013-09-13 16:30:00,66.2,43.0,29.50,ENE,78,3.0,5.0,43,0.00,CLR,OVC,0.00,WeatherDisplay:10.37,2013-09-13 06:30:00,
2013-09-13 16:45:00,65.8,43.3,29.50,NE,56,3.0,4.0,44,0.00,CLR,OVC,0.00,WeatherDisplay:10.37,2013-09-13 06:45:00,
2013-09-13 17:00:00,64.6,42.2,29.50,NNE,31,3.0,5.0,44,0.00,CLR,OVC,0.00,WeatherDisplay:10.37,2013-09-13 07:00:00,
2013-09-13 17:15:00,63.7,42.5,29.47,East,90,3.0,5.0,46,0.00,CLR,OVC,0.00,WeatherDisplay:10.37,2013-09-13 07:15:00,
2013-09-13 17:30:00,63.3,42.2,29.47,East,94,3.0,5.0,46,0.00,CLR,OVC,0.00,WeatherDisplay:10.37,2013-09-13 07:30:00,
2013-09-13 17:45:00,63.5,42.9,29.50,East,89,3.0,6.0,47,0.00,CLR,OVC,0.00,WeatherDisplay:10.37,2013-09-13 07:45:00,
2013-09-13 18:00:00,63.9,43.2,29.50,ENE,70,3.0,4.0,47,0.00,CLR,OVC,0.00,WeatherDisplay:10.37,2013-09-13 08:00:00,
2013-09-13 18:15:00,63.9,43.2,29.50,East,83,2.0,4.0,47,0.00,CLR,OVC,0.00,WeatherDisplay:10.37,2013-09-13 08:15:00,
2013-09-13 18:30:00,63.5,43.4,29.50,ENE,74,3.0,6.0,48,0.00,CLR,OVC,0.00,WeatherDisplay:10.37,2013-09-13 08:30:00,
2013-09-13 18:42:00,59.2,42.5,29.50,NE,45,3.5,3.5,54,0.00,CLR,OVC,0.00,WeatherDisplay:10.37,2013-09-13 08:42:00,
2013-09-13 18:43:00,59.2,42.5,29.50,SE,135,5.6,5.6,54,0.00,CLR,OVC,0.00,WeatherDisplay:10.37,2013-09-13 08:43:00,
2013-09-13 18:48:00,59.2,42.5,29.50,East,90,4.9,4.9,54,0.00,CLR,OVC,0.00,WeatherDisplay:10.37,2013-09-13 08:48:00,
2013-09-13 18:53:00,59.0,42.8,29.50,ESE,112,4.6,4.6,55,0.00,CLR,OVC,0.00,WeatherDisplay:10.37,2013-09-13 08:53:00,
2013-09-13 18:58:00,59.0,42.8,29.50,ESE,112,3.5,3.5,55,0.00,CLR,OVC,0.00,WeatherDisplay:10.37,2013-09-13 08:58:00,
2013-09-13 19:03:00,59.0,42.8,29.50,ESE,112,3.5,3.5,55,0.00,CLR,OVC,0.00,WeatherDisplay:10.37,2013-09-13 09:03:00,
2013-09-13 19:08:00,59.0,42.8,29.50,ESE,112,3.5,3.5,55,0.00,CLR,OVC,0.00,WeatherDisplay:10.37,2013-09-13 09:08:00,
2013-09-13 19:13:00,59.0,42.8,29.50,ESE,112,3.5,3.5,55,0.00,CLR,OVC,0.00,WeatherDisplay:10.37,2013-09-13 09:13:00,
2013-09-13 19:18:00,59.0,42.8,29.50,ESE,112,3.5,3.5,55,0.00,CLR,OVC,0.00,WeatherDisplay:10.37,2013-09-13 09:18:00,
2013-09-13 19:23:00,59.0,42.8,29.50,ESE,112,3.5,3.5,55,0.00,CLR,OVC,0.00,WeatherDisplay:10.37,2013-09-13 09:23:00,
2013-09-13 19:28:00,59.0,42.8,29.50,ESE,112,3.5,3.5,55,0.00,CLR,OVC,0.00,WeatherDisplay:10.37,2013-09-13 09:28:00,
2013-09-13 19:33:00,59.0,42.8,29.50,ESE,112,3.5,3.5,55,0.00,CLR,OVC,0.00,WeatherDisplay:10.37,2013-09-13 09:33:00,
2013-09-13 19:38:00,59.0,42.8,29.50,ESE,112,3.5,3.5,55,0.00,CLR,OVC,0.00,WeatherDisplay:10.37,2013-09-13 09:38:00,
2013-09-13 19:43:00,59.0,42.8,29.50,ESE,112,3.5,3.5,55,0.00,CLR,OVC,0.00,WeatherDisplay:10.37,2013-09-13 09:43:00,
2013-09-13 19:48:00,59.0,42.8,29.50,ESE,112,3.5,3.5,55,0.00,CLR,OVC,0.00,WeatherDisplay:10.37,2013-09-13 09:48:00,
2013-09-13 19:53:00,59.0,42.8,29.50,ESE,112,3.5,3.5,55,0.00,CLR,OVC,0.00,WeatherDisplay:10.37,2013-09-13 09:53:00,
2013-09-13 19:58:00,59.0,42.8,29.50,ESE,112,3.5,3.5,55,0.00,CLR,OVC,0.00,WeatherDisplay:10.37,2013-09-13 09:58:00,
2013-09-13 20:03:00,59.0,42.8,29.50,ESE,112,3.5,3.5,55,0.00,CLR,OVC,0.00,WeatherDisplay:10.37,2013-09-13 10:03:00,
2013-09-13 20:08:00,59.0,42.8,29.50,ESE,112,3.5,3.5,55,0.00,CLR,OVC,0.00,WeatherDisplay:10.37,2013-09-13 10:08:00,
2013-09-13 20:13:00,59.0,42.8,29.50,ESE,112,3.5,3.5,55,0.00,CLR,OVC,0.00,WeatherDisplay:10.37,2013-09-13 10:13:00,
2013-09-13 20:18:00,59.0,42.8,29.50,ESE,112,3.5,3.5,55,0.00,CLR,OVC,0.00,WeatherDisplay:10.37,2013-09-13 10:18:00,
2013-09-13 20:23:00,59.0,42.8,29.50,ESE,112,3.5,3.5,55,0.00,CLR,OVC,0.00,WeatherDisplay:10.37,2013-09-13 10:23:00,
2013-09-13 20:28:00,59.0,42.8,29.50,ESE,112,3.5,3.5,55,0.00,CLR,OVC,0.00,WeatherDisplay:10.37,2013-09-13 10:28:00,
2013-09-13 20:33:00,59.0,42.8,29.50,ESE,112,3.5,3.5,55,0.00,CLR,OVC,0.00,WeatherDisplay:10.37,2013-09-13 10:33:00,
2013-09-13 20:38:00,59.0,42.8,29.50,ESE,112,3.5,3.5,55,0.00,CLR,OVC,0.00,WeatherDisplay:10.37,2013-09-13 10:38:00,
2013-09-13 20:43:00,59.0,42.8,29.50,ESE,112,3.5,3.5,55,0.00,CLR,OVC,0.00,WeatherDisplay:10.37,2013-09-13 10:43:00,
2013-09-13 20:48:00,59.0,42.8,29.50,ESE,112,3.5,3.5,55,0.00,CLR,OVC,0.00,WeatherDisplay:10.37,2013-09-13 10:48:00,
2013-09-13 20:53:00,59.0,42.8,29.50,ESE,112,3.5,3.5,55,0.00,CLR,OVC,0.00,WeatherDisplay:10.37,2013-09-13 10:53:00,
2013-09-13 20:58:00,59.0,42.8,29.50,ESE,112,3.5,3.5,55,0.00,CLR,OVC,0.00,WeatherDisplay:10.37,2013-09-13 10:58:00,
2013-09-13 21:03:00,59.0,42.8,29.50,ESE,112,3.5,3.5,55,0.00,CLR,OVC,0.00,WeatherDisplay:10.37,2013-09-13 11:03:00,
2013-09-13 21:08:00,59.0,42.8,29.50,ESE,112,3.5,3.5,55,0.00,CLR,OVC,0.00,WeatherDisplay:10.37,2013-09-13 11:08:00,
2013-09-13 21:13:00,59.0,42.8,29.50,ESE,112,3.5,3.5,55,0.00,CLR,OVC,0.00,WeatherDisplay:10.37,2013-09-13 11:13:00,
2013-09-13 21:18:00,59.0,42.8,29.50,ESE,112,3.5,3.5,55,0.00,CLR,OVC,0.00,WeatherDisplay:10.37,2013-09-13 11:18:00,
2013-09-13 21:23:00,59.0,42.8,29.50,ESE,112,3.5,3.5,55,0.00,CLR,OVC,0.00,WeatherDisplay:10.37,2013-09-13 11:23:00,
2013-09-13 21:28:00,59.0,42.8,29.50,ESE,112,3.5,3.5,55,0.00,CLR,OVC,0.00,WeatherDisplay:10.37,2013-09-13 11:28:00,
2013-09-13 21:33:00,59.0,42.8,29.50,ESE,112,3.5,3.5,55,0.00,CLR,OVC,0.00,WeatherDisplay:10.37,2013-09-13 11:33:00,
2013-09-13 21:38:00,59.0,42.8,29.50,ESE,112,3.5,3.5,55,0.00,CLR,OVC,0.00,WeatherDisplay:10.37,2013-09-13 11:38:00,
2013-09-13 21:43:00,59.0,42.8,29.50,ESE,112,3.5,3.5,55,0.00,CLR,OVC,0.00,WeatherDisplay:10.37,2013-09-13 11:43:00,
2013-09-13 21:48:00,59.0,42.8,29.50,ESE,112,3.5,3.5,55,0.00,CLR,OVC,0.00,WeatherDisplay:10.37,2013-09-13 11:48:00,
2013-09-13 21:53:00,59.0,42.8,29.50,ESE,112,3.5,3.5,55,0.00,CLR,OVC,0.00,WeatherDisplay:10.37,2013-09-13 11:53:00,
2013-09-13 21:58:00,59.0,42.8,29.50,ESE,112,3.5,3.5,55,0.00,CLR,OVC,0.00,WeatherDisplay:10.37,2013-09-13 11:58:00,
2013-09-13 22:03:00,59.0,42.8,29.50,ESE,112,3.5,3.5,55,0.00,CLR,OVC,0.00,WeatherDisplay:10.37,2013-09-13 12:03:00,
2013-09-13 22:08:00,59.0,42.8,29.50,ESE,112,3.5,3.5,55,0.00,CLR,OVC,0.00,WeatherDisplay:10.37,2013-09-13 12:08:00,
2013-09-13 22:13:00,59.0,42.8,29.50,ESE,112,3.5,3.5,55,0.00,CLR,OVC,0.00,WeatherDisplay:10.37,2013-09-13 12:13:00,
2013-09-13 22:18:00,59.0,42.8,29.50,ESE,112,3.5,3.5,55,0.00,CLR,OVC,0.00,WeatherDisplay:10.37,2013-09-13 12:18:00,
2013-09-13 22:24:00,59.0,42.8,29.50,ESE,112,3.5,3.5,55,0.00,CLR,OVC,0.00,WeatherDisplay:10.37,2013-09-13 12:24:00,
2013-09-13 22:29:00,59.0,42.8,29.50,ESE,112,3.5,3.5,55,0.00,CLR,OVC,0.00,WeatherDisplay:10.37,2013-09-13 12:29:00,
2013-09-13 22:34:00,59.0,42.8,29.50,ESE,112,3.5,3.5,55,0.00,CLR,OVC,0.00,WeatherDisplay:10.37,2013-09-13 12:34:00,
2013-09-13 22:39:00,59.0,42.8,29.50,ESE,112,3.5,3.5,55,0.00,CLR,OVC,0.00,WeatherDisplay:10.37,2013-09-13 12:39:00,
2013-09-13 22:44:00,59.0,42.8,29.50,ESE,112,3.5,3.5,55,0.00,CLR,OVC,0.00,WeatherDisplay:10.37,2013-09-13 12:44:00,
2013-09-13 22:49:00,59.0,42.8,29.50,ESE,112,3.5,3.5,55,0.00,CLR,OVC,0.00,WeatherDisplay:10.37,2013-09-13 12:49:00,
2013-09-13 22:54:00,59.0,42.8,29.50,ESE,112,3.5,3.5,55,0.00,CLR,OVC,0.00,WeatherDisplay:10.37,2013-09-13 12:54:00,
2013-09-13 22:59:00,59.0,42.8,29.50,ESE,112,3.5,3.5,55,0.00,CLR,OVC,0.00,WeatherDisplay:10.37,2013-09-13 12:59:00,
2013-09-13 23:04:00,59.0,42.8,29.50,ESE,112,3.5,3.5,55,0.00,CLR,OVC,0.00,WeatherDisplay:10.37,2013-09-13 13:04:00,
2013-09-13 23:09:00,59.0,42.8,29.50,ESE,112,3.5,3.5,55,0.00,CLR,OVC,0.00,WeatherDisplay:10.37,2013-09-13 13:09:00,
2013-09-13 23:14:00,59.0,42.8,29.50,ESE,112,3.5,3.5,55,0.00,CLR,OVC,0.00,WeatherDisplay:10.37,2013-09-13 13:14:00,
2013-09-13 23:19:00,59.0,42.8,29.50,ESE,112,3.5,3.5,55,0.00,CLR,OVC,0.00,WeatherDisplay:10.37,2013-09-13 13:19:00,
2013-09-13 23:24:00,59.0,42.8,29.50,ESE,112,3.5,3.5,55,0.00,CLR,OVC,0.00,WeatherDisplay:10.37,2013-09-13 13:24:00,
2013-09-13 23:29:00,59.0,42.8,29.50,ESE,112,3.5,3.5,55,0.00,CLR,OVC,0.00,WeatherDisplay:10.37,2013-09-13 13:29:00,
2013-09-13 23:34:00,59.0,42.8,29.50,ESE,112,3.5,3.5,55,0.00,CLR,OVC,0.00,WeatherDisplay:10.37,2013-09-13 13:34:00,
2013-09-13 23:39:00,59.0,42.8,29.50,ESE,112,3.5,3.5,55,0.00,CLR,OVC,0.00,WeatherDisplay:10.37,2013-09-13 13:39:00,
2013-09-13 23:44:00,59.0,42.8,29.50,ESE,112,3.5,3.5,55,0.00,CLR,OVC,0.00,WeatherDisplay:10.37,2013-09-13 13:44:00,
2013-09-13 23:49:00,59.0,42.8,29.50,ESE,112,3.5,3.5,55,0.00,CLR,OVC,0.00,WeatherDisplay:10.37,2013-09-13 13:49:00,
2013-09-13 23:54:00,59.0,42.8,29.50,ESE,112,3.5,3.5,55,0.00,CLR,OVC,0.00,WeatherDisplay:10.37,2013-09-13 13:54:00,
2013-09-13 23:59:00,59.0,42.8,29.50,ESE,112,3.5,3.5,55,0.00,CLR,OVC,0.00,WeatherDisplay:10.37,2013-09-13 13:59:00,